Terug naar catalogus

CZ-6A DEB

ActiefSSO
NORAD 54557·DEBRIS·🇨🇳 China

Gelanceerd Nov 11, 2022 vanaf Taiyuan Satellite Launch Center

Loading…

Volgende Passages (komende 24 uur)

TLE

VersSource: Space-Track

Epoch: Sep 14, 2026, 01:35 UTC

1 54557U 22151LH  26257.06630509  .00000506  00000-0  13403-3 0  9993
2 54557  98.5704 310.8589 0132117  28.0223 332.8001 14.48210423202355

Volg CZ-6A DEB in realtime met AllMySat

Download on the App Store